Time,TemperatureF,DewpointF,PressureIn,WindDirection,WindDirectionDegrees,WindSpeedMPH,WindSpeedGustMPH,Humidity,HourlyPrecipIn,Conditions,Clouds,dailyrainin,SoftwareType,DateUTC
2013-03-19 00:01:00,32.7,21.1,30.05,North,0,0.0,0.0,62,0.00,,,0.00,WUHU21623XXSP,2013-03-19 05:01:00,
2013-03-19 00:06:00,32.5,21.3,30.05,North,0,0.0,0.0,63,0.00,,,0.00,WUHU21623XXSP,2013-03-19 05:06:00,
2013-03-19 00:11:00,32.2,21.0,30.05,North,0,0.0,0.0,63,0.00,,,0.00,WUHU21623XXSP,2013-03-19 05:11:00,
2013-03-19 00:16:00,32.2,21.0,30.05,North,0,0.0,0.0,63,0.00,,,0.00,WUHU21623XXSP,2013-03-19 05:16:00,
2013-03-19 00:21:00,31.8,20.7,30.05,North,0,0.0,0.0,63,0.00,,,0.00,WUHU21623XXSP,2013-03-19 05:21:00,
2013-03-19 00:26:00,31.6,20.8,30.05,North,0,0.0,0.0,64,0.00,,,0.00,WUHU21623XXSP,2013-03-19 05:26:00,
2013-03-19 00:31:00,31.3,20.5,30.05,North,0,0.0,0.0,64,0.00,,,0.00,WUHU21623XXSP,2013-03-19 05:31:00,
2013-03-19 00:36:00,31.3,20.5,30.05,North,0,0.0,0.0,64,0.00,,,0.00,WUHU21623XXSP,2013-03-19 05:36:00,
2013-03-19 00:41:00,31.1,20.5,30.05,North,0,0.0,0.0,64,0.00,,,0.00,WUHU21623XXSP,2013-03-19 05:41:00,
2013-03-19 00:46:00,31.1,20.7,30.05,North,0,0.0,0.0,65,0.00,,,0.00,WUHU21623XXSP,2013-03-19 05:46:00,
2013-03-19 00:51:00,31.1,20.7,30.05,North,0,0.0,0.0,65,0.00,,,0.00,WUHU21623XXSP,2013-03-19 05:51:00,
2013-03-19 00:56:00,31.1,20.7,30.05,North,0,0.0,0.0,65,0.00,,,0.00,WUHU21623XXSP,2013-03-19 05:56:00,
2013-03-19 01:01:00,30.9,20.5,30.05,North,0,0.0,0.0,65,0.00,,,0.00,WUHU21623XXSP,2013-03-19 06:01:00,
2013-03-19 01:07:00,30.9,20.5,30.05,North,0,0.0,0.0,65,0.00,,,0.00,WUHU21623XXSP,2013-03-19 06:07:00,
2013-03-19 01:12:00,30.7,20.3,30.05,North,0,0.0,0.0,65,0.00,,,0.00,WUHU21623XXSP,2013-03-19 06:12:00,
2013-03-19 01:17:00,30.6,20.1,30.05,North,0,0.0,0.0,65,0.00,,,0.00,WUHU21623XXSP,2013-03-19 06:17:00,
2013-03-19 01:22:00,30.4,20.3,30.05,North,0,0.0,0.0,66,0.00,,,0.00,WUHU21623XXSP,2013-03-19 06:22:00,
2013-03-19 01:27:00,30.0,20.0,30.05,North,0,0.0,0.0,66,0.00,,,0.00,WUHU21623XXSP,2013-03-19 06:27:00,
2013-03-19 01:32:00,29.8,19.8,30.05,North,0,0.0,0.0,66,0.00,,,0.00,WUHU21623XXSP,2013-03-19 06:32:00,
2013-03-19 01:37:00,29.7,20.0,30.06,North,0,0.0,0.0,67,0.00,,,0.00,WUHU21623XXSP,2013-03-19 06:37:00,
2013-03-19 01:42:00,29.5,20.0,30.06,North,0,0.0,0.0,68,0.00,,,0.00,WUHU21623XXSP,2013-03-19 06:42:00,
2013-03-19 01:47:00,29.3,20.0,30.06,North,0,0.0,0.0,68,0.00,,,0.00,WUHU21623XXSP,2013-03-19 06:47:00,
2013-03-19 01:52:00,29.1,19.9,30.06,North,0,0.0,0.0,68,0.00,,,0.00,WUHU21623XXSP,2013-03-19 06:52:00,
2013-03-19 01:57:00,29.1,19.9,30.06,North,0,0.0,0.0,68,0.00,,,0.00,WUHU21623XXSP,2013-03-19 06:57:00,
2013-03-19 02:02:00,28.9,19.7,30.06,North,0,0.0,0.0,68,0.00,,,0.00,WUHU21623XXSP,2013-03-19 07:02:00,
2013-03-19 02:07:00,28.9,20.1,30.06,North,0,0.0,0.0,69,0.00,,,0.00,WUHU21623XXSP,2013-03-19 07:07:00,
2013-03-19 02:12:00,29.1,20.2,30.06,North,0,0.0,0.0,69,0.00,,,0.00,WUHU21623XXSP,2013-03-19 07:12:00,
2013-03-19 02:17:00,29.1,20.2,30.07,North,0,0.0,0.0,69,0.00,,,0.00,WUHU21623XXSP,2013-03-19 07:17:00,
2013-03-19 02:22:00,29.1,20.2,30.07,North,0,0.0,0.0,69,0.00,,,0.00,WUHU21623XXSP,2013-03-19 07:22:00,
2013-03-19 02:27:00,29.3,20.4,30.08,North,0,0.0,0.0,69,0.00,,,0.00,WUHU21623XXSP,2013-03-19 07:27:00,
2013-03-19 02:32:00,29.5,20.4,30.07,North,0,0.0,0.0,69,0.00,,,0.00,WUHU21623XXSP,2013-03-19 07:32:00,
2013-03-19 02:37:00,29.3,20.0,30.08,North,0,0.0,0.0,68,0.00,,,0.00,WUHU21623XXSP,2013-03-19 07:37:00,
2013-03-19 02:42:00,29.3,20.0,30.08,North,0,0.0,0.0,68,0.00,,,0.00,WUHU21623XXSP,2013-03-19 07:42:00,
2013-03-19 02:47:00,29.3,20.0,30.09,North,0,0.0,0.0,68,0.00,,,0.00,WUHU21623XXSP,2013-03-19 07:47:00,
2013-03-19 02:52:00,29.5,20.6,30.08,North,0,0.0,0.0,69,0.00,,,0.00,WUHU21623XXSP,2013-03-19 07:52:00,
2013-03-19 02:57:00,29.5,20.6,30.08,North,0,0.0,0.0,69,0.00,,,0.00,WUHU21623XXSP,2013-03-19 07:57:00,
2013-03-19 03:02:00,29.5,20.6,30.08,North,0,0.0,0.0,69,0.00,,,0.00,WUHU21623XXSP,2013-03-19 08:02:00,
2013-03-19 03:07:00,29.3,20.6,30.07,North,0,0.0,0.0,69,0.00,,,0.00,WUHU21623XXSP,2013-03-19 08:07:00,
2013-03-19 03:12:00,29.3,20.4,30.07,North,0,0.0,0.0,69,0.00,,,0.00,WUHU21623XXSP,2013-03-19 08:12:00,
2013-03-19 03:17:00,29.3,20.4,30.07,North,0,0.0,0.0,69,0.00,,,0.00,WUHU21623XXSP,2013-03-19 08:17:00,
2013-03-19 03:22:00,29.1,20.2,30.07,North,0,0.0,0.0,69,0.00,,,0.00,WUHU21623XXSP,2013-03-19 08:22:00,
2013-03-19 03:27:00,29.1,20.2,30.07,North,0,0.0,0.0,69,0.00,,,0.00,WUHU21623XXSP,2013-03-19 08:27:00,
2013-03-19 03:32:00,29.1,20.2,30.07,North,0,0.0,0.0,69,0.00,,,0.00,WUHU21623XXSP,2013-03-19 08:32:00,
2013-03-19 03:37:00,28.9,20.1,30.07,North,0,0.0,0.0,69,0.00,,,0.00,WUHU21623XXSP,2013-03-19 08:37:00,
2013-03-19 03:42:00,28.8,19.9,30.07,North,0,0.0,0.0,69,0.00,,,0.00,WUHU21623XXSP,2013-03-19 08:42:00,
2013-03-19 03:47:00,28.8,20.3,30.07,North,0,0.0,0.0,70,0.00,,,0.00,WUHU21623XXSP,2013-03-19 08:47:00,
2013-03-19 03:52:00,28.8,19.9,30.08,North,0,0.0,0.0,69,0.00,,,0.00,WUHU21623XXSP,2013-03-19 08:52:00,
2013-03-19 03:57:00,28.8,19.9,30.08,North,0,0.0,0.0,69,0.00,,,0.00,WUHU21623XXSP,2013-03-19 08:57:00,
2013-03-19 04:02:00,28.9,20.1,30.08,North,0,0.0,0.0,69,0.00,,,0.00,WUHU21623XXSP,2013-03-19 09:02:00,
2013-03-19 04:07:00,28.9,20.1,30.07,North,0,0.0,0.0,69,0.00,,,0.00,WUHU21623XXSP,2013-03-19 09:07:00,
2013-03-19 04:12:00,28.8,19.5,30.08,North,0,0.0,0.0,68,0.00,,,0.00,WUHU21623XXSP,2013-03-19 09:12:00,
2013-03-19 04:17:00,28.8,19.5,30.09,North,0,0.0,0.0,68,0.00,,,0.00,WUHU21623XXSP,2013-03-19 09:17:00,
2013-03-19 04:22:00,28.6,19.4,30.09,North,0,0.0,0.0,68,0.00,,,0.00,WUHU21623XXSP,2013-03-19 09:22:00,
2013-03-19 04:27:00,28.6,19.4,30.10,North,0,0.0,0.0,68,0.00,,,0.00,WUHU21623XXSP,2013-03-19 09:27:00,
2013-03-19 04:32:00,28.8,19.4,30.08,North,0,0.0,0.0,68,0.00,,,0.00,WUHU21623XXSP,2013-03-19 09:32:00,
2013-03-19 04:37:00,28.9,19.7,30.08,North,0,0.0,0.0,68,0.00,,,0.00,WUHU21623XXSP,2013-03-19 09:37:00,
2013-03-19 04:42:00,29.1,19.9,30.08,North,0,0.0,0.0,67,0.00,,,0.00,WUHU21623XXSP,2013-03-19 09:42:00,
2013-03-19 04:47:00,29.5,19.8,30.09,North,0,0.0,0.0,67,0.00,,,0.00,WUHU21623XXSP,2013-03-19 09:47:00,
2013-03-19 04:52:00,29.7,19.6,30.09,North,0,0.0,0.0,66,0.00,,,0.00,WUHU21623XXSP,2013-03-19 09:52:00,
2013-03-19 04:58:00,29.8,19.6,30.09,North,0,0.0,0.0,66,0.00,,,0.00,WUHU21623XXSP,2013-03-19 09:58:00,
2013-03-19 05:03:00,29.8,19.4,30.09,North,0,0.0,0.0,65,0.00,,,0.00,WUHU21623XXSP,2013-03-19 10:03:00,
2013-03-19 05:08:00,29.8,19.4,30.09,North,0,0.0,0.0,65,0.00,,,0.00,WUHU21623XXSP,2013-03-19 10:08:00,
2013-03-19 05:13:00,30.0,19.2,30.09,North,0,0.0,0.0,64,0.00,,,0.00,WUHU21623XXSP,2013-03-19 10:13:00,
2013-03-19 05:18:00,30.0,19.2,30.10,North,0,0.0,0.0,64,0.00,,,0.00,WUHU21623XXSP,2013-03-19 10:18:00,
2013-03-19 05:23:00,30.0,18.9,30.10,North,0,0.0,0.0,63,0.00,,,0.00,WUHU21623XXSP,2013-03-19 10:23:00,
2013-03-19 05:28:00,30.0,18.9,30.10,North,0,0.0,0.0,63,0.00,,,0.00,WUHU21623XXSP,2013-03-19 10:28:00,
2013-03-19 05:33:00,30.0,18.9,30.10,North,0,0.0,0.0,63,0.00,,,0.00,WUHU21623XXSP,2013-03-19 10:33:00,
2013-03-19 05:38:00,30.0,18.9,30.10,North,0,0.0,0.0,63,0.00,,,0.00,WUHU21623XXSP,2013-03-19 10:38:00,
2013-03-19 05:43:00,30.0,18.9,30.10,North,0,0.0,0.0,63,0.00,,,0.00,WUHU21623XXSP,2013-03-19 10:43:00,
2013-03-19 05:48:00,30.0,18.9,30.11,North,0,0.0,0.0,63,0.00,,,0.00,WUHU21623XXSP,2013-03-19 10:48:00,
2013-03-19 05:53:00,29.8,18.7,30.10,North,0,0.0,0.0,63,0.00,,,0.00,WUHU21623XXSP,2013-03-19 10:53:00,
2013-03-19 05:58:00,29.8,18.7,30.10,North,0,0.0,0.0,63,0.00,,,0.00,WUHU21623XXSP,2013-03-19 10:58:00,
2013-03-19 06:03:00,29.7,18.6,30.11,North,0,0.0,0.0,63,0.00,,,0.00,WUHU21623XXSP,2013-03-19 11:03:00,
2013-03-19 06:08:00,29.8,18.7,30.11,North,0,0.0,0.0,63,0.00,,,0.00,WUHU21623XXSP,2013-03-19 11:08:00,
2013-03-19 06:13:00,29.7,18.6,30.11,North,0,0.0,0.0,63,0.00,,,0.00,WUHU21623XXSP,2013-03-19 11:13:00,
2013-03-19 06:18:00,29.7,18.6,30.11,North,0,0.0,0.0,63,0.00,,,0.00,WUHU21623XXSP,2013-03-19 11:18:00,
2013-03-19 06:23:00,29.7,18.6,30.12,North,0,0.0,0.0,63,0.00,,,0.00,WUHU21623XXSP,2013-03-19 11:23:00,
2013-03-19 06:28:00,29.7,18.6,30.12,North,0,0.0,0.0,63,0.00,,,0.00,WUHU21623XXSP,2013-03-19 11:28:00,
2013-03-19 06:33:00,29.5,18.6,30.12,North,0,0.0,0.0,63,0.00,,,0.00,WUHU21623XXSP,2013-03-19 11:33:00,
2013-03-19 06:38:00,29.5,18.8,30.13,North,0,0.0,0.0,64,0.00,,,0.00,WUHU21623XXSP,2013-03-19 11:38:00,
2013-03-19 06:43:00,29.5,18.8,30.13,North,0,0.0,0.0,64,0.00,,,0.00,WUHU21623XXSP,2013-03-19 11:43:00,
2013-03-19 06:48:00,29.5,18.8,30.13,North,0,0.0,0.0,64,0.00,,,0.00,WUHU21623XXSP,2013-03-19 11:48:00,
2013-03-19 06:53:00,29.5,18.8,30.12,North,0,0.0,0.0,64,0.00,,,0.00,WUHU21623XXSP,2013-03-19 11:53:00,
2013-03-19 06:58:00,29.5,18.8,30.13,North,0,0.0,0.0,64,0.00,,,0.00,WUHU21623XXSP,2013-03-19 11:58:00,
2013-03-19 07:03:00,29.5,18.8,30.13,North,0,0.0,0.0,64,0.00,,,0.00,WUHU21623XXSP,2013-03-19 12:03:00,
2013-03-19 07:08:00,29.3,18.6,30.12,North,0,0.0,0.0,64,0.00,,,0.00,WUHU21623XXSP,2013-03-19 12:08:00,
2013-03-19 07:13:00,29.3,18.6,30.12,North,0,0.0,0.0,64,0.00,,,0.00,WUHU21623XXSP,2013-03-19 12:13:00,
2013-03-19 07:18:00,29.3,18.6,30.13,North,0,0.0,0.0,64,0.00,,,0.00,WUHU21623XXSP,2013-03-19 12:18:00,
2013-03-19 07:23:00,29.3,18.6,30.14,North,0,0.0,0.0,64,0.00,,,0.00,WUHU21623XXSP,2013-03-19 12:23:00,
2013-03-19 07:28:00,29.5,18.8,30.13,North,0,0.0,0.0,64,0.00,,,0.00,WUHU21623XXSP,2013-03-19 12:28:00,
2013-03-19 07:33:00,29.8,18.9,30.14,North,0,0.0,0.0,64,0.00,,,0.00,WUHU21623XXSP,2013-03-19 12:33:00,
2013-03-19 07:38:00,29.8,19.1,30.14,North,0,0.0,0.0,64,0.00,,,0.00,WUHU21623XXSP,2013-03-19 12:38:00,
2013-03-19 07:43:00,30.0,19.2,30.15,North,0,0.0,0.0,64,0.00,,,0.00,WUHU21623XXSP,2013-03-19 12:43:00,
2013-03-19 07:48:00,30.0,19.2,30.15,North,0,0.0,0.0,64,0.00,,,0.00,WUHU21623XXSP,2013-03-19 12:48:00,
2013-03-19 07:53:00,30.2,19.4,30.15,North,0,0.0,0.0,64,0.00,,,0.00,WUHU21623XXSP,2013-03-19 12:53:00,
2013-03-19 07:58:00,30.4,19.6,30.15,North,0,0.0,0.0,64,0.00,,,0.00,WUHU21623XXSP,2013-03-19 12:58:00,
2013-03-19 08:03:00,30.6,19.8,30.15,North,0,0.0,0.0,64,0.00,,,0.00,WUHU21623XXSP,2013-03-19 13:03:00,
2013-03-19 08:08:00,30.7,19.9,30.15,North,0,0.0,0.0,64,0.00,,,0.00,WUHU21623XXSP,2013-03-19 13:08:00,
2013-03-19 08:13:00,30.9,20.1,30.15,North,0,0.0,0.0,64,0.00,,,0.00,WUHU21623XXSP,2013-03-19 13:13:00,
2013-03-19 08:18:00,31.3,20.3,30.15,North,0,0.0,0.0,64,0.00,,,0.00,WUHU21623XXSP,2013-03-19 13:18:00,
2013-03-19 08:23:00,31.5,20.7,30.15,North,0,0.0,0.0,64,0.00,,,0.00,WUHU21623XXSP,2013-03-19 13:23:00,
2013-03-19 08:28:00,31.8,21.0,30.16,North,0,0.0,0.0,64,0.00,,,0.00,WUHU21623XXSP,2013-03-19 13:28:00,
2013-03-19 08:33:00,32.2,21.0,30.16,North,0,0.0,0.0,63,0.00,,,0.00,WUHU21623XXSP,2013-03-19 13:33:00,
2013-03-19 08:38:00,32.5,21.3,30.17,North,0,0.0,0.0,63,0.00,,,0.00,WUHU21623XXSP,2013-03-19 13:38:00,
2013-03-19 08:43:00,32.9,21.1,30.18,North,0,0.0,0.0,62,0.00,,,0.00,WUHU21623XXSP,2013-03-19 13:43:00,
2013-03-19 08:48:00,33.1,21.1,30.18,North,0,0.0,0.0,61,0.00,,,0.00,WUHU21623XXSP,2013-03-19 13:48:00,
2013-03-19 08:53:00,32.9,20.6,30.18,North,0,0.0,0.0,60,0.00,,,0.00,WUHU21623XXSP,2013-03-19 13:53:00,
2013-03-19 08:58:00,33.1,20.3,30.19,North,0,0.0,0.0,59,0.00,,,0.00,WUHU21623XXSP,2013-03-19 13:58:00,
2013-03-19 09:03:00,33.4,20.6,30.19,North,0,0.0,0.0,59,0.00,,,0.00,WUHU21623XXSP,2013-03-19 14:03:00,
2013-03-19 09:08:00,33.6,20.8,30.19,North,0,0.0,0.0,59,0.00,,,0.00,WUHU21623XXSP,2013-03-19 14:08:00,
2013-03-19 09:13:00,34.3,21.1,30.20,North,0,0.0,0.0,58,0.00,,,0.00,WUHU21623XXSP,2013-03-19 14:13:00,
2013-03-19 09:18:00,34.5,21.1,30.19,North,0,0.0,0.0,58,0.00,,,0.00,WUHU21623XXSP,2013-03-19 14:18:00,
2013-03-19 09:23:00,34.9,21.2,30.20,North,0,0.0,0.0,57,0.00,,,0.00,WUHU21623XXSP,2013-03-19 14:23:00,
2013-03-19 09:28:00,35.4,21.3,30.20,North,0,0.0,0.0,56,0.00,,,0.00,WUHU21623XXSP,2013-03-19 14:28:00,
2013-03-19 09:33:00,35.8,21.5,30.20,North,0,0.0,0.0,56,0.00,,,0.00,WUHU21623XXSP,2013-03-19 14:33:00,
2013-03-19 09:38:00,35.8,20.8,30.20,North,0,0.0,0.0,54,0.00,,,0.00,WUHU21623XXSP,2013-03-19 14:38:00,
2013-03-19 09:43:00,35.8,20.8,30.21,North,0,0.0,0.0,54,0.00,,,0.00,WUHU21623XXSP,2013-03-19 14:43:00,
2013-03-19 09:48:00,35.8,20.3,30.21,North,0,0.0,0.0,53,0.00,,,0.00,WUHU21623XXSP,2013-03-19 14:48:00,
2013-03-19 09:53:00,35.8,20.3,30.21,North,0,0.0,0.0,53,0.00,,,0.00,WUHU21623XXSP,2013-03-19 14:53:00,
2013-03-19 09:58:00,36.3,20.6,30.21,North,0,0.0,0.0,53,0.00,,,0.00,WUHU21623XXSP,2013-03-19 14:58:00,
2013-03-19 10:04:00,36.5,20.5,30.21,North,0,0.0,0.0,52,0.00,,,0.00,WUHU21623XXSP,2013-03-19 15:04:00,
2013-03-19 10:09:00,37.0,20.6,30.22,North,0,0.0,0.0,51,0.00,,,0.00,WUHU21623XXSP,2013-03-19 15:09:00,
2013-03-19 10:14:00,37.2,20.8,30.22,North,0,0.0,0.0,51,0.00,,,0.00,WUHU21623XXSP,2013-03-19 15:14:00,
2013-03-19 10:19:00,37.4,21.2,30.22,North,0,0.0,0.0,52,0.00,,,0.00,WUHU21623XXSP,2013-03-19 15:19:00,
2013-03-19 10:24:00,37.6,21.5,30.22,North,0,0.0,0.0,52,0.00,,,0.00,WUHU21623XXSP,2013-03-19 15:24:00,
2013-03-19 10:29:00,37.2,21.6,30.22,North,0,0.0,0.0,53,0.00,,,0.00,WUHU21623XXSP,2013-03-19 15:29:00,
2013-03-19 10:34:00,37.8,21.9,30.23,North,0,0.0,0.0,52,0.00,,,0.00,WUHU21623XXSP,2013-03-19 15:34:00,
2013-03-19 10:39:00,37.9,21.0,30.23,North,0,0.0,0.0,50,0.00,,,0.00,WUHU21623XXSP,2013-03-19 15:39:00,
2013-03-19 10:44:00,37.9,20.4,30.23,North,0,0.0,0.0,49,0.00,,,0.00,WUHU21623XXSP,2013-03-19 15:44:00,
2013-03-19 10:49:00,38.5,20.9,30.22,North,0,0.0,0.0,48,0.00,,,0.00,WUHU21623XXSP,2013-03-19 15:49:00,
2013-03-19 10:54:00,39.0,20.7,30.23,North,0,0.0,0.0,48,0.00,,,0.00,WUHU21623XXSP,2013-03-19 15:54:00,
2013-03-19 10:59:00,39.4,21.1,30.23,North,0,0.0,0.0,48,0.00,,,0.00,WUHU21623XXSP,2013-03-19 15:59:00,
2013-03-19 11:04:00,39.4,20.7,30.23,North,0,0.0,0.0,47,0.00,,,0.00,WUHU21623XXSP,2013-03-19 16:04:00,
2013-03-19 11:09:00,39.4,21.2,30.24,North,0,0.0,0.0,48,0.00,,,0.00,WUHU21623XXSP,2013-03-19 16:09:00,
2013-03-19 11:14:00,39.7,21.4,30.24,North,0,0.0,0.0,48,0.00,,,0.00,WUHU21623XXSP,2013-03-19 16:14:00,
2013-03-19 11:19:00,40.3,21.5,30.24,North,0,0.0,0.0,46,0.00,,,0.00,WUHU21623XXSP,2013-03-19 16:19:00,
2013-03-19 11:24:00,40.6,21.3,30.24,North,0,0.0,0.0,46,0.00,,,0.00,WUHU21623XXSP,2013-03-19 16:24:00,
2013-03-19 11:30:00,40.8,22.0,30.24,North,0,0.0,0.0,47,0.00,,,0.00,WUHU21623XXSP,2013-03-19 16:30:00,
2013-03-19 11:35:00,41.7,22.8,30.25,North,0,0.0,0.0,47,0.00,,,0.00,WUHU21623XXSP,2013-03-19 16:35:00,
2013-03-19 11:40:00,41.9,22.5,30.24,North,0,0.0,0.0,46,0.00,,,0.00,WUHU21623XXSP,2013-03-19 16:40:00,
2013-03-19 11:45:00,41.9,22.5,30.24,North,0,0.0,0.0,46,0.00,,,0.00,WUHU21623XXSP,2013-03-19 16:45:00,
2013-03-19 11:50:00,41.9,22.1,30.24,North,0,0.0,0.0,44,0.00,,,0.00,WUHU21623XXSP,2013-03-19 16:50:00,
2013-03-19 11:55:00,41.9,21.4,30.23,North,0,0.0,0.0,44,0.00,,,0.00,WUHU21623XXSP,2013-03-19 16:55:00,
2013-03-19 12:00:00,42.3,22.1,30.23,North,0,0.0,0.0,46,0.00,,,0.00,WUHU21623XXSP,2013-03-19 17:00:00,
2013-03-19 12:05:00,42.6,22.6,30.23,North,0,0.0,0.0,44,0.00,,,0.00,WUHU21623XXSP,2013-03-19 17:05:00,
2013-03-19 12:10:00,42.6,22.1,30.23,North,0,0.0,0.0,44,0.00,,,0.00,WUHU21623XXSP,2013-03-19 17:10:00,
2013-03-19 12:15:00,43.0,22.4,30.23,North,0,0.0,0.0,44,0.00,,,0.00,WUHU21623XXSP,2013-03-19 17:15:00,
2013-03-19 12:20:00,43.3,22.8,30.24,North,0,0.0,0.0,44,0.00,,,0.00,WUHU21623XXSP,2013-03-19 17:20:00,
2013-03-19 12:25:00,43.0,21.9,30.24,North,0,0.0,0.0,43,0.00,,,0.00,WUHU21623XXSP,2013-03-19 17:25:00,
2013-03-19 12:30:00,43.5,22.9,30.23,North,0,0.0,0.0,44,0.00,,,0.00,WUHU21623XXSP,2013-03-19 17:30:00,
2013-03-19 12:35:00,43.7,22.5,30.23,North,0,0.0,0.0,43,0.00,,,0.00,WUHU21623XXSP,2013-03-19 17:35:00,
2013-03-19 12:40:00,44.1,22.9,30.23,North,0,0.0,0.0,43,0.00,,,0.00,WUHU21623XXSP,2013-03-19 17:40:00,
2013-03-19 12:45:00,44.2,21.4,30.24,North,0,0.0,0.0,40,0.00,,,0.00,WUHU21623XXSP,2013-03-19 17:45:00,
2013-03-19 12:50:00,43.9,20.4,30.24,North,0,0.0,0.0,39,0.00,,,0.00,WUHU21623XXSP,2013-03-19 17:50:00,
2013-03-19 12:55:00,43.7,20.4,30.24,North,0,0.0,0.0,40,0.00,,,0.00,WUHU21623XXSP,2013-03-19 17:55:00,
2013-03-19 13:00:00,43.9,21.1,30.24,North,0,0.0,0.0,40,0.00,,,0.00,WUHU21623XXSP,2013-03-19 18:00:00,
2013-03-19 13:05:00,44.1,21.3,30.23,North,0,0.0,0.0,40,0.00,,,0.00,WUHU21623XXSP,2013-03-19 18:05:00,
2013-03-19 13:10:00,44.4,21.6,30.23,North,0,0.0,0.0,40,0.00,,,0.00,WUHU21623XXSP,2013-03-19 18:10:00,
2013-03-19 13:15:00,45.0,22.6,30.23,North,0,0.0,0.0,41,0.00,,,0.00,WUHU21623XXSP,2013-03-19 18:15:00,
2013-03-19 13:20:00,45.0,22.1,30.23,North,0,0.0,0.0,40,0.00,,,0.00,WUHU21623XXSP,2013-03-19 18:20:00,
2013-03-19 13:25:00,45.0,22.1,30.23,North,0,0.0,0.0,40,0.00,,,0.00,WUHU21623XXSP,2013-03-19 18:25:00,
2013-03-19 13:30:00,45.5,21.2,30.22,North,0,0.0,0.0,38,0.00,,,0.00,WUHU21623XXSP,2013-03-19 18:30:00,
2013-03-19 13:35:00,45.5,21.2,30.23,North,0,0.0,0.0,38,0.00,,,0.00,WUHU21623XXSP,2013-03-19 18:35:00,
2013-03-19 13:40:00,45.7,21.4,30.23,North,0,0.0,0.0,38,0.00,,,0.00,WUHU21623XXSP,2013-03-19 18:40:00,
2013-03-19 13:45:00,46.0,22.4,30.22,North,0,0.0,0.0,39,0.00,,,0.00,WUHU21623XXSP,2013-03-19 18:45:00,
2013-03-19 13:50:00,46.4,22.7,30.22,North,0,0.0,0.0,39,0.00,,,0.00,WUHU21623XXSP,2013-03-19 18:50:00,
2013-03-19 13:55:00,46.9,23.2,30.22,North,0,0.0,0.0,39,0.00,,,0.00,WUHU21623XXSP,2013-03-19 18:55:00,
2013-03-19 14:00:00,47.3,23.5,30.22,North,0,0.0,0.0,39,0.00,,,0.00,WUHU21623XXSP,2013-03-19 19:00:00,
2013-03-19 14:05:00,47.5,23.7,30.22,North,0,0.0,0.0,39,0.00,,,0.00,WUHU21623XXSP,2013-03-19 19:05:00,
2013-03-19 14:10:00,47.8,23.3,30.22,North,0,0.0,0.0,38,0.00,,,0.00,WUHU21623XXSP,2013-03-19 19:10:00,
2013-03-19 14:15:00,47.8,22.7,30.22,North,0,0.0,0.0,38,0.00,,,0.00,WUHU21623XXSP,2013-03-19 19:15:00,
2013-03-19 14:20:00,48.0,23.5,30.21,North,0,0.0,0.0,38,0.00,,,0.00,WUHU21623XXSP,2013-03-19 19:20:00,
2013-03-19 14:25:00,47.7,21.8,30.21,North,0,0.0,0.0,36,0.00,,,0.00,WUHU21623XXSP,2013-03-19 19:25:00,
2013-03-19 14:30:00,47.1,22.0,30.21,North,0,0.0,0.0,37,0.00,,,0.00,WUHU21623XXSP,2013-03-19 19:30:00,
2013-03-19 14:35:00,47.1,22.0,30.21,North,0,0.0,0.0,37,0.00,,,0.00,WUHU21623XXSP,2013-03-19 19:35:00,
2013-03-19 14:40:00,46.8,21.8,30.20,North,0,0.0,0.0,36,0.00,,,0.00,WUHU21623XXSP,2013-03-19 19:40:00,
2013-03-19 14:45:00,46.6,20.9,30.21,North,0,0.0,0.0,36,0.00,,,0.00,WUHU21623XXSP,2013-03-19 19:45:00,
2013-03-19 14:50:00,46.4,20.9,30.21,North,0,0.0,0.0,36,0.00,,,0.00,WUHU21623XXSP,2013-03-19 19:50:00,
2013-03-19 14:55:00,46.2,20.5,30.20,North,0,0.0,0.0,36,0.00,,,0.00,WUHU21623XXSP,2013-03-19 19:55:00,
2013-03-19 15:00:00,46.0,20.4,30.21,North,0,0.0,0.0,36,0.00,,,0.00,WUHU21623XXSP,2013-03-19 20:00:00,
2013-03-19 15:05:00,46.2,21.2,30.21,North,0,0.0,0.0,37,0.00,,,0.00,WUHU21623XXSP,2013-03-19 20:05:00,
2013-03-19 15:10:00,46.0,20.4,30.21,North,0,0.0,0.0,36,0.00,,,0.00,WUHU21623XXSP,2013-03-19 20:10:00,
2013-03-19 15:15:00,46.0,20.4,30.21,North,0,0.0,0.0,36,0.00,,,0.00,WUHU21623XXSP,2013-03-19 20:15:00,
2013-03-19 15:20:00,46.0,19.7,30.21,North,0,0.0,0.0,35,0.00,,,0.00,WUHU21623XXSP,2013-03-19 20:20:00,
2013-03-19 15:26:00,46.0,19.0,30.21,North,0,0.0,0.0,34,0.00,,,0.00,WUHU21623XXSP,2013-03-19 20:26:00,
2013-03-19 15:31:00,46.0,19.7,30.21,North,0,0.0,0.0,35,0.00,,,0.00,WUHU21623XXSP,2013-03-19 20:31:00,
2013-03-19 15:36:00,46.2,19.9,30.21,North,0,0.0,0.0,35,0.00,,,0.00,WUHU21623XXSP,2013-03-19 20:36:00,
2013-03-19 15:41:00,46.2,19.9,30.21,North,0,0.0,0.0,35,0.00,,,0.00,WUHU21623XXSP,2013-03-19 20:41:00,
2013-03-19 15:46:00,46.2,19.9,30.21,North,0,0.0,0.0,35,0.00,,,0.00,WUHU21623XXSP,2013-03-19 20:46:00,
2013-03-19 15:51:00,46.2,20.5,30.21,North,0,0.0,0.0,36,0.00,,,0.00,WUHU21623XXSP,2013-03-19 20:51:00,
2013-03-19 15:56:00,46.2,20.5,30.20,North,0,0.0,0.0,36,0.00,,,0.00,WUHU21623XXSP,2013-03-19 20:56:00,
2013-03-19 16:01:00,46.0,20.4,30.20,North,0,0.0,0.0,36,0.00,,,0.00,WUHU21623XXSP,2013-03-19 21:01:00,
2013-03-19 16:06:00,46.2,20.5,30.20,North,0,0.0,0.0,36,0.00,,,0.00,WUHU21623XXSP,2013-03-19 21:06:00,
2013-03-19 16:11:00,46.2,20.5,30.20,North,0,0.0,0.0,36,0.00,,,0.00,WUHU21623XXSP,2013-03-19 21:11:00,
2013-03-19 16:16:00,46.2,19.9,30.20,North,0,0.0,0.0,35,0.00,,,0.00,WUHU21623XXSP,2013-03-19 21:16:00,
2013-03-19 16:21:00,46.2,20.5,30.20,North,0,0.0,0.0,36,0.00,,,0.00,WUHU21623XXSP,2013-03-19 21:21:00,
2013-03-19 16:26:00,46.4,20.0,30.20,North,0,0.0,0.0,35,0.00,,,0.00,WUHU21623XXSP,2013-03-19 21:26:00,
2013-03-19 16:31:00,46.6,20.2,30.20,North,0,0.0,0.0,35,0.00,,,0.00,WUHU21623XXSP,2013-03-19 21:31:00,
2013-03-19 16:36:00,46.0,19.7,30.21,North,0,0.0,0.0,35,0.00,,,0.00,WUHU21623XXSP,2013-03-19 21:36:00,
2013-03-19 16:42:00,46.0,19.7,30.21,North,0,0.0,0.0,35,0.00,,,0.00,WUHU21623XXSP,2013-03-19 21:42:00,
2013-03-19 16:47:00,46.2,20.5,30.21,North,0,0.0,0.0,36,0.00,,,0.00,WUHU21623XXSP,2013-03-19 21:47:00,
2013-03-19 16:52:00,46.0,20.4,30.21,North,0,0.0,0.0,36,0.00,,,0.00,WUHU21623XXSP,2013-03-19 21:52:00,
2013-03-19 16:57:00,46.0,20.4,30.21,North,0,0.0,0.0,36,0.00,,,0.00,WUHU21623XXSP,2013-03-19 21:57:00,
2013-03-19 17:02:00,46.0,21.0,30.21,North,0,0.0,0.0,37,0.00,,,0.00,WUHU21623XXSP,2013-03-19 22:02:00,
2013-03-19 17:07:00,46.0,21.0,30.21,North,0,0.0,0.0,37,0.00,,,0.00,WUHU21623XXSP,2013-03-19 22:07:00,
2013-03-19 17:12:00,45.7,21.0,30.21,North,0,0.0,0.0,37,0.00,,,0.00,WUHU21623XXSP,2013-03-19 22:12:00,
2013-03-19 17:17:00,45.7,20.7,30.21,North,0,0.0,0.0,37,0.00,,,0.00,WUHU21623XXSP,2013-03-19 22:17:00,
2013-03-19 17:22:00,45.7,20.7,30.21,North,0,0.0,0.0,37,0.00,,,0.00,WUHU21623XXSP,2013-03-19 22:22:00,
2013-03-19 17:27:00,45.7,20.7,30.20,North,0,0.0,0.0,37,0.00,,,0.00,WUHU21623XXSP,2013-03-19 22:27:00,
2013-03-19 17:32:00,45.7,20.7,30.21,North,0,0.0,0.0,38,0.00,,,0.00,WUHU21623XXSP,2013-03-19 22:32:00,
2013-03-19 17:37:00,45.7,21.4,30.20,North,0,0.0,0.0,38,0.00,,,0.00,WUHU21623XXSP,2013-03-19 22:37:00,
2013-03-19 17:42:00,45.5,21.2,30.20,North,0,0.0,0.0,38,0.00,,,0.00,WUHU21623XXSP,2013-03-19 22:42:00,
2013-03-19 17:47:00,45.7,21.4,30.20,North,0,0.0,0.0,38,0.00,,,0.00,WUHU21623XXSP,2013-03-19 22:47:00,
2013-03-19 17:52:00,45.7,20.7,30.20,North,0,0.0,0.0,37,0.00,,,0.00,WUHU21623XXSP,2013-03-19 22:52:00,
2013-03-19 17:58:00,45.5,20.6,30.20,North,0,0.0,0.0,37,0.00,,,0.00,WUHU21623XXSP,2013-03-19 22:58:00,
2013-03-19 18:03:00,45.3,20.4,30.20,North,0,0.0,0.0,37,0.00,,,0.00,WUHU21623XXSP,2013-03-19 23:03:00,
2013-03-19 18:08:00,45.1,20.2,30.20,North,0,0.0,0.0,37,0.00,,,0.00,WUHU21623XXSP,2013-03-19 23:08:00,
2013-03-19 18:13:00,45.0,20.1,30.20,North,0,0.0,0.0,37,0.00,,,0.00,WUHU21623XXSP,2013-03-19 23:13:00,
2013-03-19 18:18:00,44.8,19.9,30.21,North,0,0.0,0.0,37,0.00,,,0.00,WUHU21623XXSP,2013-03-19 23:18:00,
2013-03-19 18:23:00,44.4,20.4,30.21,North,0,0.0,0.0,38,0.00,,,0.00,WUHU21623XXSP,2013-03-19 23:23:00,
2013-03-19 18:28:00,44.4,20.2,30.21,North,0,0.0,0.0,38,0.00,,,0.00,WUHU21623XXSP,2013-03-19 23:28:00,
2013-03-19 18:33:00,44.2,20.1,30.21,North,0,0.0,0.0,38,0.00,,,0.00,WUHU21623XXSP,2013-03-19 23:33:00,
2013-03-19 18:38:00,43.9,19.8,30.21,North,0,0.0,0.0,38,0.00,,,0.00,WUHU21623XXSP,2013-03-19 23:38:00,
2013-03-19 18:43:00,43.7,19.6,30.21,North,0,0.0,0.0,38,0.00,,,0.00,WUHU21623XXSP,2013-03-19 23:43:00,
2013-03-19 18:48:00,43.3,19.3,30.21,North,0,0.0,0.0,38,0.00,,,0.00,WUHU21623XXSP,2013-03-19 23:48:00,
2013-03-19 18:53:00,43.2,19.9,30.21,North,0,0.0,0.0,38,0.00,,,0.00,WUHU21623XXSP,2013-03-19 23:53:00,
2013-03-19 18:58:00,42.6,19.6,30.21,North,0,0.0,0.0,39,0.00,,,0.00,WUHU21623XXSP,2013-03-19 23:58:00,
2013-03-19 19:03:00,42.4,19.3,30.21,North,0,0.0,0.0,39,0.00,,,0.00,WUHU21623XXSP,2013-03-20 00:03:00,
2013-03-19 19:08:00,42.1,18.8,30.20,North,0,0.0,0.0,39,0.00,,,0.00,WUHU21623XXSP,2013-03-20 00:08:00,
2013-03-19 19:13:00,41.7,19.1,30.20,North,0,0.0,0.0,40,0.00,,,0.00,WUHU21623XXSP,2013-03-20 00:13:00,
2013-03-19 19:18:00,41.5,18.3,30.21,North,0,0.0,0.0,40,0.00,,,0.00,WUHU21623XXSP,2013-03-20 00:18:00,
2013-03-19 19:23:00,41.2,18.8,30.21,North,0,0.0,0.0,41,0.00,,,0.00,WUHU21623XXSP,2013-03-20 00:23:00,
2013-03-19 19:28:00,40.8,18.9,30.20,North,0,0.0,0.0,41,0.00,,,0.00,WUHU21623XXSP,2013-03-20 00:28:00,
2013-03-19 19:33:00,40.5,18.5,30.21,North,0,0.0,0.0,41,0.00,,,0.00,WUHU21623XXSP,2013-03-20 00:33:00,
2013-03-19 19:38:00,39.9,19.1,30.20,North,0,0.0,0.0,43,0.00,,,0.00,WUHU21623XXSP,2013-03-20 00:38:00,
2013-03-19 19:43:00,39.7,19.1,30.20,North,0,0.0,0.0,43,0.00,,,0.00,WUHU21623XXSP,2013-03-20 00:43:00,
2013-03-19 19:48:00,39.6,18.8,30.20,North,0,0.0,0.0,43,0.00,,,0.00,WUHU21623XXSP,2013-03-20 00:48:00,
2013-03-19 19:53:00,39.4,19.1,30.21,North,0,0.0,0.0,44,0.00,,,0.00,WUHU21623XXSP,2013-03-20 00:53:00,
2013-03-19 19:58:00,39.0,18.8,30.21,North,0,0.0,0.0,44,0.00,,,0.00,WUHU21623XXSP,2013-03-20 00:58:00,
2013-03-19 20:03:00,38.8,18.8,30.21,North,0,0.0,0.0,44,0.00,,,0.00,WUHU21623XXSP,2013-03-20 01:03:00,
2013-03-19 20:08:00,38.5,18.6,30.20,North,0,0.0,0.0,44,0.00,,,0.00,WUHU21623XXSP,2013-03-20 01:08:00,
2013-03-19 20:13:00,38.3,18.3,30.21,North,0,0.0,0.0,45,0.00,,,0.00,WUHU21623XXSP,2013-03-20 01:13:00,
2013-03-19 20:18:00,37.9,18.5,30.20,North,0,0.0,0.0,45,0.00,,,0.00,WUHU21623XXSP,2013-03-20 01:18:00,
2013-03-19 20:23:00,37.6,18.0,30.21,North,0,0.0,0.0,46,0.00,,,0.00,WUHU21623XXSP,2013-03-20 01:23:00,
2013-03-19 20:28:00,37.2,18.2,30.21,North,0,0.0,0.0,46,0.00,,,0.00,WUHU21623XXSP,2013-03-20 01:28:00,
2013-03-19 20:33:00,37.0,18.6,30.21,North,0,0.0,0.0,47,0.00,,,0.00,WUHU21623XXSP,2013-03-20 01:33:00,
2013-03-19 20:38:00,36.5,18.6,30.21,North,0,0.0,0.0,48,0.00,,,0.00,WUHU21623XXSP,2013-03-20 01:38:00,
2013-03-19 20:43:00,36.5,18.6,30.21,North,0,0.0,0.0,48,0.00,,,0.00,WUHU21623XXSP,2013-03-20 01:43:00,
2013-03-19 20:48:00,36.3,18.5,30.21,North,0,0.0,0.0,48,0.00,,,0.00,WUHU21623XXSP,2013-03-20 01:48:00,
2013-03-19 20:53:00,36.1,18.8,30.21,North,0,0.0,0.0,49,0.00,,,0.00,WUHU21623XXSP,2013-03-20 01:53:00,
2013-03-19 20:58:00,35.8,18.5,30.21,North,0,0.0,0.0,49,0.00,,,0.00,WUHU21623XXSP,2013-03-20 01:58:00,
2013-03-19 21:03:00,35.4,18.7,30.21,North,0,0.0,0.0,50,0.00,,,0.00,WUHU21623XXSP,2013-03-20 02:03:00,
2013-03-19 21:08:00,34.9,18.1,30.21,North,0,0.0,0.0,51,0.00,,,0.00,WUHU21623XXSP,2013-03-20 02:08:00,
2013-03-19 21:13:00,34.5,18.4,30.21,North,0,0.0,0.0,52,0.00,,,0.00,WUHU21623XXSP,2013-03-20 02:13:00,
2013-03-19 21:18:00,34.3,18.5,30.21,North,0,0.0,0.0,52,0.00,,,0.00,WUHU21623XXSP,2013-03-20 02:18:00,
2013-03-19 21:23:00,34.2,18.9,30.21,North,0,0.0,0.0,53,0.00,,,0.00,WUHU21623XXSP,2013-03-20 02:23:00,
2013-03-19 21:28:00,34.0,19.0,30.21,North,0,0.0,0.0,54,0.00,,,0.00,WUHU21623XXSP,2013-03-20 02:28:00,
2013-03-19 21:33:00,33.6,18.6,30.21,North,0,0.0,0.0,54,0.00,,,0.00,WUHU21623XXSP,2013-03-20 02:33:00,
2013-03-19 21:38:00,33.4,19.1,30.22,North,0,0.0,0.0,55,0.00,,,0.00,WUHU21623XXSP,2013-03-20 02:38:00,
2013-03-19 21:43:00,33.1,18.7,30.21,North,0,0.0,0.0,56,0.00,,,0.00,WUHU21623XXSP,2013-03-20 02:43:00,
2013-03-19 21:48:00,32.9,19.0,30.21,North,0,0.0,0.0,56,0.00,,,0.00,WUHU21623XXSP,2013-03-20 02:48:00,
2013-03-19 21:53:00,32.7,19.1,30.22,North,0,0.0,0.0,57,0.00,,,0.00,WUHU21623XXSP,2013-03-20 02:53:00,
2013-03-19 21:58:00,32.5,19.1,30.22,North,0,0.0,0.0,58,0.00,,,0.00,WUHU21623XXSP,2013-03-20 02:58:00,
2013-03-19 22:03:00,32.5,19.4,30.22,North,0,0.0,0.0,58,0.00,,,0.00,WUHU21623XXSP,2013-03-20 03:03:00,
2013-03-19 22:08:00,32.4,19.2,30.22,North,0,0.0,0.0,58,0.00,,,0.00,WUHU21623XXSP,2013-03-20 03:08:00,
2013-03-19 22:13:00,32.4,19.2,30.22,North,0,0.0,0.0,58,0.00,,,0.00,WUHU21623XXSP,2013-03-20 03:13:00,
2013-03-19 22:18:00,32.4,19.2,30.22,North,0,0.0,0.0,58,0.00,,,0.00,WUHU21623XXSP,2013-03-20 03:18:00,
2013-03-19 22:23:00,32.7,19.4,30.22,North,0,0.0,0.0,59,0.00,,,0.00,WUHU21623XXSP,2013-03-20 03:23:00,
2013-03-19 22:28:00,32.9,20.1,30.22,North,0,0.0,0.0,59,0.00,,,0.00,WUHU21623XXSP,2013-03-20 03:28:00,
2013-03-19 22:34:00,33.3,20.9,30.22,North,0,0.0,0.0,60,0.00,,,0.00,WUHU21623XXSP,2013-03-20 03:34:00,
2013-03-19 22:39:00,33.3,20.9,30.21,North,0,0.0,0.0,60,0.00,,,0.00,WUHU21623XXSP,2013-03-20 03:39:00,
2013-03-19 22:44:00,33.3,20.9,30.21,North,0,0.0,0.0,60,0.00,,,0.00,WUHU21623XXSP,2013-03-20 03:44:00,
2013-03-19 22:49:00,33.6,21.9,30.21,North,0,0.0,0.0,62,0.00,,,0.00,WUHU21623XXSP,2013-03-20 03:49:00,
2013-03-19 22:54:00,33.6,21.9,30.21,North,0,0.0,0.0,62,0.00,,,0.00,WUHU21623XXSP,2013-03-20 03:54:00,
2013-03-19 22:59:00,33.6,22.3,30.21,North,0,0.0,0.0,63,0.00,,,0.00,WUHU21623XXSP,2013-03-20 03:59:00,
2013-03-19 23:01:00,33.8,22.5,30.21,North,0,0.0,0.0,63,0.00,,,0.00,WUHU21623XXSP,2013-03-20 04:01:00,
2013-03-19 23:04:00,33.8,22.8,30.21,North,0,0.0,0.0,64,0.00,,,0.00,WUHU21623XXSP,2013-03-20 04:04:00,
2013-03-19 23:06:00,34.0,22.8,30.21,North,0,0.0,0.0,64,0.00,,,0.00,WUHU21623XXSP,2013-03-20 04:06:00,
2013-03-19 23:12:00,34.0,23.4,30.21,North,0,0.0,0.0,65,0.00,,,0.00,WUHU21623XXSP,2013-03-20 04:12:00,
2013-03-19 23:17:00,34.2,23.9,30.21,North,0,0.0,0.0,66,0.00,,,0.00,WUHU21623XXSP,2013-03-20 04:17:00,
2013-03-19 23:22:00,34.2,23.9,30.21,North,0,0.0,0.0,66,0.00,,,0.00,WUHU21623XXSP,2013-03-20 04:22:00,
2013-03-19 23:27:00,34.3,24.4,30.21,North,0,0.0,0.0,67,0.00,,,0.00,WUHU21623XXSP,2013-03-20 04:27:00,
2013-03-19 23:32:00,34.3,24.8,30.21,North,0,0.0,0.0,68,0.00,,,0.00,WUHU21623XXSP,2013-03-20 04:32:00,
2013-03-19 23:37:00,34.3,25.2,30.20,North,0,0.0,0.0,69,0.00,,,0.00,WUHU21623XXSP,2013-03-20 04:37:00,
2013-03-19 23:39:00,34.3,25.2,30.21,North,0,0.0,0.0,69,0.00,,,0.00,WUHU21623XXSP,2013-03-20 04:39:00,
2013-03-19 23:44:00,34.3,25.5,30.21,North,0,0.0,0.0,70,0.00,,,0.00,WUHU21623XXSP,2013-03-20 04:44:00,
2013-03-19 23:49:00,34.3,25.8,30.21,North,0,0.0,0.0,71,0.00,,,0.00,WUHU21623XXSP,2013-03-20 04:49:00,
2013-03-19 23:54:00,34.3,25.8,30.21,North,0,0.0,0.0,71,0.00,,,0.00,WUHU21623XXSP,2013-03-20 04:54:00,
2013-03-19 23:59:00,34.3,26.2,30.22,North,0,0.0,0.0,72,0.00,,,0.00,WUHU21623XXSP,2013-03-20 04:59:00,